Location: eljas
(40.1958°N, 6.8661°W)
Time: 09:13:37
(UTC+02:00)

ISS - All Passes

Search period start: 25 May 2016 00:00
Search period end: 04 June 2016 00:00
Orbit: 402 x 404 km, 51.6° (Epoch: 24 May)

Date Brightness Start Highest point End Pass type
(mag) Time Alt. Az. Time Alt. Az. Time Alt. Az.
25 May - 00:37:14 10° SW 00:40:29 86° NW 00:43:46 10° NE visible
25 May - 02:15:02 10° WNW 02:17:20 18° NNW 02:19:38 10° NNE visible
25 May - 03:53:44 10° NNW 03:54:49 11° N 03:55:54 10° NNE visible
25 May - 05:29:43 10° NNW 05:32:14 20° NNE 05:34:45 10° ENE visible
25 May - 07:05:43 10° WNW 07:08:58 70° SW 07:12:12 10° SE daylight
25 May - 23:44:39 10° SSW 23:47:48 46° SE 23:50:57 10° ENE night (unlit)
26 May - 01:21:37 10° W 01:24:23 24° NNW 01:27:08 10° NNE visible
26 May - 03:00:30 10° NNW 03:01:43 12° N 03:02:55 10° NNE visible
26 May - 04:37:13 10° NNW 04:39:14 15° NNE 04:41:15 10° NE visible
26 May - 06:13:00 10° NW 06:16:13 59° NNE 06:19:26 10° ESE visible
26 May - 07:50:29 10° W 07:52:19 14° SW 07:54:10 10° SSW daylight
26 May - 22:52:31 10° S 22:55:10 23° SE 22:57:50 10° ENE visible
27 May - 00:28:23 10° W 00:31:28 38° NNW 00:34:34 10° NE visible
27 May - 02:06:59 10° NW 02:08:37 13° NNW 02:10:16 10° NNE visible
27 May - 03:44:39 10° NNW 03:46:11 13° N 03:47:41 10° NE visible
27 May - 05:20:22 10° NW 05:23:23 33° NNE 05:26:23 10° E visible
27 May - 06:56:55 10° WNW 06:59:45 27° SW 07:02:35 10° SSE daylight
27 May - 22:01:19 10° SSE 22:02:37 12° SE 22:03:56 10° ESE daylight
27 May - 23:35:24 10° WSW 23:38:39 70° NW 23:41:55 10° NE visible
28 May - 01:13:25 10° WNW 01:15:34 16° NNW 01:17:44 10° NNE visible
28 May - 02:51:56 10° NNW 02:53:04 11° N 02:54:13 10° NNE visible
28 May - 04:27:49 10° NNW 04:30:27 22° NNE 04:33:06 10° ENE visible
28 May - 06:03:54 10° WNW 06:07:06 56° SW 06:10:18 10° SE visible
28 May - 22:42:42 10° SW 22:45:55 57° SE 22:49:07 10° ENE visible
29 May - 00:19:56 10° WNW 00:22:34 22° NNW 00:25:12 10° NNE visible
29 May - 01:58:49 10° NNW 01:59:57 11° N 02:01:05 10° NNE visible
29 May - 03:35:17 10° NNW 03:37:27 16° NNE 03:39:38 10° ENE visible
29 May - 05:11:06 10° NW 05:14:22 72° NE 05:17:36 10° ESE visible
29 May - 06:49:09 10° WSW 06:50:23 12° SW 06:51:36 10° SSW daylight
29 May - 21:50:24 10° SSW 21:53:14 28° SE 21:56:06 10° ENE daylight
29 May - 23:26:38 10° W 23:29:37 33° NNW 23:32:38 10° NE visible
30 May - 01:05:20 10° NW 01:06:50 12° N 01:08:20 10° NNE visible
30 May - 02:42:43 10° NNW 02:44:23 13° NNE 02:46:02 10° NE visible
30 May - 04:18:26 10° NW 04:21:31 39° NNE 04:24:37 10° ESE visible
30 May - 05:55:11 10° W 05:57:49 23° SW 06:00:26 10° S visible
30 May - 20:58:45 10° SSE 21:00:39 15° SE 21:02:33 10° E daylight
30 May - 22:33:32 10° WSW 22:36:45 58° NW 22:39:59 10° NE visible
31 May - 00:11:44 10° NW 00:13:44 15° NNW 00:15:45 10° NNE visible
31 May - 01:50:03 10° NNW 01:51:16 12° N 01:52:29 10° NNE visible
31 May - 03:25:50 10° NNW 03:28:37 25° NNE 03:31:21 10° E visible
31 May - 05:02:02 10° WNW 05:05:11 45° SW 05:08:18 10° SSE visible
31 May - 21:40:43 10° SW 21:43:58 72° SE 21:47:13 10° ENE daylight
31 May - 23:18:12 10° WNW 23:20:42 20° NNW 23:23:12 10° NNE visible
01 Jun - 00:57:02 10° NNW 00:58:07 11° N 00:59:12 10° NNE visible
01 Jun - 02:33:16 10° NNW 02:35:36 18° NNE 02:37:55 10° ENE visible
01 Jun - 04:09:09 10° NW 04:12:26 87° NE 04:15:41 10° SE visible
01 Jun - 20:48:15 10° SSW 20:51:15 34° SE 20:54:16 10° ENE daylight
01 Jun - 22:24:49 10° W 22:27:43 29° NNW 22:30:38 10° NE visible
02 Jun - 00:03:36 10° NNW 00:04:58 12° N 00:06:22 10° NNE visible
02 Jun - 01:40:43 10° NNW 01:42:31 14° NNE 01:44:20 10° NE visible
02 Jun - 03:16:26 10° NW 03:19:36 45° NNE 03:22:45 10° ESE visible
02 Jun - 04:53:27 10° W 04:55:49 19° SW 04:58:10 10° S night (unlit)
02 Jun - 19:56:20 10° S 19:58:37 18° SE 20:00:54 10° E daylight
02 Jun - 21:31:38 10° WSW 21:34:48 48° NNW 21:37:59 10° NE daylight
02 Jun - 23:10:00 10° NW 23:11:51 14° NNW 23:13:44 10° NNE visible
03 Jun - 00:48:03 10° NNW 00:49:24 12° N 00:50:44 10° NNE visible
03 Jun - 02:23:48 10° NW 02:26:41 28° NNE 02:29:32 10° E visible
03 Jun - 04:00:08 10° WNW 04:03:10 36° SW 04:06:11 10° SSE night (unlit)
03 Jun - 20:38:42 10° SW 20:41:58 88° SE 20:45:15 10° NE daylight
03 Jun - 22:16:24 10° WNW 22:18:46 18° NNW 22:21:09 10° NNE daylight
03 Jun - 23:55:10 10° NNW 23:56:14 11° N 23:57:20 10° NNE visible
